OUTPOST MISSION 2 (58334 NORAD) Tracking and Keplerian Element Data

This shows tracking and keplerian element data for the satellite.

Feedback or suggestion? Click here.




ElementValue
Catalog58334
NameOUTPOST MISSION 2
Epoch Orbit6906
Epoch Day35.13703143
Epoch Year2025
RAAN114.8602
Inclination97.4356
Eccentricity0.0010483
Argument of Perigee111.2688
Mean Anonmoly248.9673
Mean Motion15.30116916
Decay Rate0.00020985
L11 58334U 23174CG 25035.13703143 .00020985 00000+0 72029-3 0 9993
L22 58334 97.4356 114.8602 0010483 111.2688 248.9673 15.30116916 69067



Live tracking and technical data element details for OUTPOST MISSION 2 (NORAD 58334). OUTPOST MISSION 2 can be tracked NOW for your location showing map with azimuth and elevation plus other details from your city location.







IsCatalogInMostPopularTable: catalog: 58334, numindb: 209
Update: records affected: 1



GetName: 58334 OUTPOST MISSION 2

Hit Count: updated at: Mon, 17 Nov 2025 06:46:37 GMT